Theta_e
314 317 319 319 313 311 313 315 316 317 326 326 324 324 327 333 334 335 329 330 332 340 338 338 338 335 332 327 327 324 325 326 324 323 323 319 311 311 311 311 314 317 322 321 315 314 314 323 323
315 319 323 320 312 313 315 316 317 324 323 324 325 326 326 332 329 329 328 326 330 328 334 342 339 334 330 327 327 325 326 325 323 323 322 315 310 310 310 313 317 319 321 317 315 315 316 323 323
316 318 318 313 313 316 315 319 321 326 323 323 322 324 333 333 332 334 330 327 326 325 327 332 340 336 331 328 328 327 327 325 323 324 319 313 310 309 312 318 318 319 319 315 316 315 320 322 322
317 318 318 314 315 315 321 326 325 326 324 321 321 324 326 332 333 330 328 327 328 325 324 330 338 337 333 330 329 328 329 326 323 323 318 311 309 310 315 326 321 318 318 316 316 316 319 322 323
319 319 312 314 315 317 323 323 326 325 325 322 322 323 325 327 327 330 335 338 335 326 331 336 339 337 334 331 330 329 328 324 324 322 315 309 309 311 317 323 322 318 317 316 316 316 316 320 322
319 317 313 315 316 320 322 322 326 328 323 323 324 324 326 324 326 326 326 334 338 336 337 339 339 338 334 331 331 329 326 324 324 319 311 309 310 314 318 318 318 318 316 316 316 317 317 315 319
315 312 312 313 315 321 322 325 324 325 325 324 323 324 328 328 330 329 329 332 335 334 332 330 339 338 335 332 331 328 324 324 322 316 309 310 314 317 318 318 318 317 316 316 317 317 318 318 315
318 311 312 313 317 321 323 322 325 327 325 324 327 329 327 327 334 334 333 335 331 329 330 325 332 337 335 333 331 325 324 324 317 310 309 312 317 318 318 318 317 316 316 317 317 318 319 319 316
318 311 312 314 318 318 322 323 324 328 328 326 328 324 324 334 333 334 328 333 330 327 324 325 330 336 334 332 326 324 324 318 311 309 312 315 318 318 317 316 316 316 316 317 318 318 319 320 319
314 311 314 317 318 318 320 324 322 327 327 325 325 323 330 333 334 335 334 333 333 330 327 325 327 332 332 327 325 323 316 312 310 312 315 316 317 317 316 316 316 316 316 318 318 320 320 319 319
318 314 316 318 319 321 320 324 328 328 330 330 327 331 334 334 333 334 334 333 333 331 329 328 326 328 330 325 321 316 312 311 312 314 316 314 315 316 315 315 316 317 318 319 320 320 320 319 319
317 318 318 320 319 321 320 324 326 330 330 332 334 334 334 333 332 332 332 332 333 330 328 329 329 329 324 320 316 313 311 311 314 316 314 314 315 316 315 315 316 317 319 320 320 320 320 320 320
319 318 321 322 323 324 323 323 325 323 324 331 331 331 333 332 331 330 331 329 330 331 329 329 329 327 323 318 314 312 312 310 313 313 314 318 315 315 314 315 316 318 320 321 321 321 321 320 320
319 320 319 322 323 322 324 324 324 322 326 331 331 330 329 329 330 330 331 330 328 330 329 328 326 323 321 318 315 313 311 312 316 318 316 314 317 314 313 314 317 319 321 321 322 322 321 318 310
320 319 318 322 322 322 323 324 323 322 322 329 331 330 328 328 329 330 330 330 329 329 329 328 327 322 319 315 314 312 312 313 319 318 316 320 318 314 313 317 319 322 322 322 322 321 316 311 310
319 318 318 322 322 323 322 323 324 322 326 329 329 330 327 326 326 328 328 328 328 327 326 325 324 322 316 317 316 314 314 321 318 317 317 319 317 324 322 322 322 323 322 322 321 320 316 310 311
319 318 320 324 323 323 322 324 323 324 324 326 329 329 326 324 325 325 326 326 325 325 322 322 322 318 319 319 315 315 316 315 316 317 319 319 320 321 322 323 324 323 322 322 321 319 312 311 311
320 322 325 325 323 323 322 322 322 323 325 327 329 326 325 323 322 322 323 324 324 323 322 322 320 318 317 316 313 315 315 315 315 316 315 315 317 320 322 324 324 323 322 322 321 317 311 312 311
321 322 322 322 323 322 321 320 325 324 326 325 326 325 323 324 322 322 322 321 321 320 320 320 319 318 316 314 314 315 315 315 315 315 316 316 318 321 323 324 323 323 322 321 318 312 312 312 312
322 320 319 320 322 321 320 319 321 325 324 322 321 321 323 323 324 321 321 321 321 320 319 318 317 317 317 316 314 316 315 316 317 316 316 317 320 322 323 323 323 323 321 319 316 313 312 312 312
321 320 320 320 321 320 322 320 321 323 324 321 321 323 323 321 322 322 322 322 321 319 317 315 315 315 314 313 315 316 318 318 316 314 315 316 321 322 323 323 324 323 321 319 317 314 312 312 313
321 320 321 323 321 320 322 321 321 323 326 324 321 323 325 324 322 324 323 321 319 317 316 316 318 319 319 319 319 319 320 322 319 319 317 321 322 322 322 323 323 322 321 318 317 316 312 314 314
321 322 323 323 321 321 322 323 321 321 324 327 325 322 324 325 323 324 324 321 319 318 319 321 323 324 323 322 321 324 323 322 322 322 319 321 322 322 323 323 323 322 322 318 316 316 312 313 314
321 322 322 323 321 322 322 325 321 320 324 324 326 326 323 326 326 324 322 324 323 319 319 320 323 324 325 325 324 325 324 322 322 323 321 321 323 322 322 323 323 322 321 319 317 315 313 313 313
320 320 322 325 325 324 327 327 323 322 321 322 327 326 326 325 326 326 325 323 324 324 323 321 321 323 324 326 324 326 324 322 323 324 324 323 321 323 323 323 323 322 321 318 316 314 314 313 312
319 320 323 327 326 330 328 328 323 322 322 322 323 327 326 326 326 326 326 325 326 326 325 324 322 323 325 326 327 325 324 323 324 325 326 325 324 324 323 323 323 321 319 318 315 314 313 313 311
322 322 321 326 328 329 327 324 323 322 320 319 320 321 326 327 326 326 326 326 326 326 326 325 325 324 326 328 329 329 328 325 325 326 326 325 324 324 323 322 322 320 318 317 316 313 312 312 309
320 322 324 323 329 329 327 325 324 321 321 320 319 322 325 326 327 326 326 326 326 326 326 325 325 325 323 325 328 329 329 329 326 326 326 325 325 325 322 322 322 318 316 316 313 313 312 309 308
321 321 324 324 323 322 322 322 321 321 321 321 319 321 322 323 324 326 327 327 326 326 326 326 326 326 326 326 326 329 330 330 329 328 326 326 325 324 323 322 322 319 317 315 314 314 311 310 310
320 320 321 324 325 324 322 321 321 320 318 319 319 321 321 321 325 324 323 326 328 327 327 327 327 327 327 328 329 329 330 330 328 328 327 327 325 324 323 322 321 319 317 314 314 314 311 310 309
Wind_Speed
5 5 5 5 3 3 7 12 14 14 5 15 18 15 6 7 3 3 9 6 6 20 22 27 36 36 35 35 34 32 31 29 28 27 24 22 21 25 27 27 27 28 30 28 28 29 30 33 32
5 5 9 6 2 3 9 12 7 17 19 32 22 28 15 0 6 6 5 6 23 20 19 16 30 33 33 34 34 31 29 27 25 25 22 21 23 27 28 28 27 28 30 29 29 30 31 31 28
4 3 4 3 4 9 7 10 14 16 31 22 14 13 8 13 11 1 5 6 7 13 26 39 30 34 35 35 34 32 28 27 25 23 20 20 25 28 29 28 27 28 29 29 29 29 31 29 28
4 3 6 1 13 19 7 2 9 9 9 20 13 5 6 12 12 12 7 6 6 15 33 45 35 37 37 37 35 33 30 28 26 23 20 22 26 28 30 28 27 27 28 27 27 27 29 28 25
7 6 2 5 15 22 3 6 13 3 1 7 11 8 4 2 11 18 9 5 5 19 24 29 45 44 40 37 35 32 30 29 27 23 21 25 27 29 29 28 26 26 26 26 24 24 25 25 23
6 4 4 12 18 8 3 4 1 5 2 9 9 8 4 3 17 17 9 5 14 17 15 34 39 44 42 40 37 33 30 28 25 22 23 26 28 29 28 27 26 25 24 23 22 21 21 21 20
8 2 7 10 12 1 3 2 3 5 4 5 12 5 16 8 11 11 6 10 9 14 4 21 40 42 44 40 36 34 31 27 24 22 25 27 28 28 27 25 25 24 23 21 20 19 17 17 18
21 3 9 7 7 4 4 7 8 9 4 13 6 1 6 16 12 5 5 9 8 6 17 34 9 47 44 39 36 33 30 26 23 25 27 28 28 27 26 24 24 22 20 19 19 17 15 14 16
20 3 7 11 9 5 3 2 16 19 12 2 12 3 10 11 9 2 5 8 10 6 9 9 15 47 44 40 36 32 28 24 26 29 29 29 29 28 26 25 23 20 19 17 17 16 13 11 11
5 3 10 11 3 4 11 12 8 9 11 2 11 6 2 9 5 5 3 4 5 8 18 11 18 28 35 36 34 31 30 29 30 31 30 30 27 26 24 24 21 20 18 17 17 15 15 13 9
18 7 13 14 15 7 6 9 17 11 9 10 13 9 10 6 2 5 7 6 10 11 16 20 24 27 27 33 35 35 33 32 29 30 29 28 26 25 26 23 21 20 18 18 17 16 13 8 7
5 20 13 14 23 4 3 2 7 21 5 13 10 7 4 5 5 2 1 4 8 11 26 29 31 34 39 38 37 37 41 36 33 32 27 26 26 25 24 22 20 18 18 17 17 12 8 7 7
8 7 11 10 11 16 15 4 4 5 1 12 9 10 5 4 6 5 7 12 17 20 23 34 39 39 39 39 38 38 41 42 32 28 28 23 22 22 20 19 18 18 18 18 14 9 8 10 9
19 20 16 11 13 8 4 3 1 2 6 9 7 7 5 4 7 10 15 17 24 28 29 31 40 40 39 39 39 36 37 35 33 28 24 21 18 19 18 17 18 18 17 14 10 10 9 7 5
20 9 10 9 8 3 4 0 2 3 8 8 11 7 5 6 11 16 17 21 19 27 33 31 32 35 37 43 36 35 34 32 28 30 27 20 19 16 20 19 20 16 15 13 12 10 8 6 4
9 7 5 5 6 7 6 8 4 13 13 6 8 12 10 8 12 17 18 21 25 28 29 33 34 36 40 35 37 41 38 31 34 32 24 22 21 19 16 15 19 20 19 15 12 10 10 8 5
5 8 6 8 9 5 4 4 7 13 16 14 19 17 13 11 12 17 19 19 27 28 28 27 30 35 36 37 35 36 40 37 33 21 24 22 20 18 19 21 20 22 19 17 14 14 13 10 8
7 6 5 5 4 6 12 5 7 16 16 21 17 15 15 15 14 19 21 22 21 23 24 25 34 36 34 38 38 36 35 33 26 22 25 30 20 19 21 20 23 21 19 20 20 17 14 11 13
14 16 7 9 7 10 10 7 12 19 18 21 21 24 21 21 20 19 24 23 23 27 28 32 34 30 30 36 37 33 32 29 34 35 32 26 21 20 22 22 21 20 20 21 18 18 18 18 16
17 9 6 7 8 12 7 8 10 10 23 33 30 27 26 27 25 28 26 21 26 24 32 29 30 31 32 32 34 30 35 32 29 27 26 25 25 24 25 23 21 20 21 19 20 21 21 20 17
7 5 6 9 8 6 1 6 4 7 25 24 29 32 31 31 31 30 27 25 27 33 36 34 30 30 34 33 32 27 25 24 26 28 29 29 27 25 25 26 24 23 24 23 21 21 21 20 16
3 9 11 6 3 4 2 5 4 5 14 19 25 29 34 33 31 30 29 30 37 39 38 34 29 28 26 27 28 28 29 31 32 30 30 28 27 24 25 27 27 25 26 26 25 21 22 21 20
7 8 3 3 6 4 4 0 7 7 9 16 21 32 35 37 34 35 35 35 38 39 38 32 28 25 23 26 28 29 31 29 28 26 30 30 30 32 29 29 29 26 28 28 26 23 26 26 22
6 4 5 2 2 5 8 3 7 5 15 17 23 34 38 40 38 34 35 37 38 39 35 31 29 27 25 24 30 31 34 32 29 28 29 33 31 26 28 32 33 29 28 29 28 26 27 27 24
5 4 2 4 2 5 9 6 10 8 8 8 24 32 40 44 43 40 37 38 39 41 41 37 35 36 33 31 33 34 36 33 31 29 29 29 30 28 27 32 35 33 32 31 29 30 29 26 25
7 10 5 6 3 3 13 5 6 5 9 17 16 35 40 39 45 46 44 41 43 42 41 40 39 40 40 37 35 36 37 37 34 32 32 30 27 25 25 28 33 33 33 33 34 33 32 28 26
4 5 9 6 1 2 5 7 1 4 5 5 8 12 33 41 43 49 48 46 46 44 44 44 44 42 42 40 37 37 39 40 37 35 34 31 29 28 26 27 31 33 35 35 37 32 27 24 20
10 3 2 1 7 6 4 5 3 3 4 4 5 13 15 22 40 44 48 50 50 48 47 45 43 44 43 42 42 38 40 39 40 41 39 35 31 28 24 26 30 34 35 35 29 21 25 17 13
4 8 4 9 4 5 3 5 5 7 4 2 2 14 14 10 7 17 38 46 51 49 48 48 48 47 46 39 42 39 39 40 39 40 36 34 31 25 24 27 29 32 39 29 31 30 29 21 26
16 12 10 5 5 4 5 5 5 8 10 11 12 14 16 16 16 11 8 9 43 52 51 49 48 49 48 41 44 42 39 38 38 35 36 35 29 24 22 21 26 32 34 30 32 29 21 26 21
Wind_Direction
278 298 323 304 43 72 268 266 250 279 25 346 347 15 75 46 71 205 142 163 237 164 170 193 184 177 172 166 159 158 155 150 148 143 139 134 129 129 128 127 125 125 122 119 114 107 102 103 98
289 265 308 287 133 289 277 260 273 52 27 17 20 354 10 191 92 131 190 167 182 239 227 178 188 180 175 167 161 158 154 150 147 142 141 133 132 131 130 129 128 126 123 119 114 107 108 109 104
293 264 284 162 207 246 256 3 353 58 38 43 360 26 26 340 344 177 194 143 198 232 221 241 197 184 178 170 164 161 157 153 150 145 140 133 136 135 133 131 130 130 125 121 115 111 115 112 109
314 287 252 215 262 263 206 25 60 1 34 38 21 62 348 354 340 356 311 322 262 246 219 217 212 181 180 173 168 164 159 158 155 149 145 139 140 137 135 132 132 129 125 123 120 115 116 116 113
292 266 274 256 263 264 273 70 89 102 89 327 1 308 281 338 312 315 301 279 310 216 238 219 178 179 177 173 169 165 162 160 156 151 146 144 144 140 138 138 136 133 129 128 125 118 114 117 114
273 243 289 278 281 300 244 333 93 100 137 17 17 355 279 292 277 265 277 247 196 188 182 193 177 176 173 173 169 165 162 161 156 149 147 148 145 143 145 145 137 136 134 130 127 120 115 114 126
235 105 257 271 298 170 320 282 166 118 88 27 12 30 347 318 239 258 277 232 195 187 73 22 182 176 170 171 166 163 162 160 154 148 149 148 146 147 148 146 141 140 137 131 128 124 118 114 119
264 127 287 296 287 264 245 317 203 153 115 155 98 56 279 306 276 259 202 166 116 139 241 294 15 173 168 164 163 162 160 156 151 149 150 149 146 144 144 144 144 141 137 133 131 127 124 116 112
270 311 277 275 308 313 247 350 1 92 113 152 178 320 30 292 277 285 173 172 158 117 53 232 355 150 159 158 158 158 154 152 151 151 151 149 147 148 146 144 143 142 139 137 138 137 122 114 111
231 204 251 259 264 17 12 25 349 78 102 320 249 242 19 236 302 101 33 91 138 128 114 142 118 161 156 150 153 154 152 152 152 150 151 151 149 149 148 143 146 148 146 148 139 130 125 122 136
263 227 264 290 317 38 26 349 52 47 49 358 320 359 153 191 93 91 111 118 108 122 165 157 160 166 171 158 158 155 148 150 149 149 150 150 152 154 156 151 154 153 157 152 147 146 154 152 134
288 260 269 314 307 23 344 37 72 99 159 52 24 28 137 129 119 110 154 206 145 155 158 163 175 177 165 160 157 152 149 150 154 150 148 150 159 164 156 158 159 164 160 160 161 157 154 161 181
314 294 314 338 17 18 8 53 148 135 84 78 26 25 70 118 143 144 180 178 183 180 177 170 169 171 169 165 160 157 155 156 154 149 161 166 168 168 165 165 169 170 171 175 170 167 177 190 213
291 306 301 324 329 7 308 65 176 51 52 74 54 60 100 163 192 177 171 180 165 166 176 182 172 166 168 169 161 160 163 154 153 159 166 166 172 172 170 173 176 177 180 187 185 191 189 194 181
323 317 310 274 306 318 322 266 211 273 184 115 128 129 114 152 183 184 175 168 180 177 182 191 184 176 167 166 167 160 155 163 162 161 157 177 174 179 195 181 185 185 190 201 192 191 187 194 187
299 302 282 278 285 274 151 259 188 173 153 165 147 128 132 146 181 180 179 178 180 182 180 179 180 180 176 169 164 165 162 171 169 171 174 185 178 178 189 196 192 194 205 200 201 203 202 205 208
262 255 254 328 260 223 131 246 239 207 142 141 150 150 150 144 163 177 180 186 180 181 173 180 184 173 162 157 158 169 172 172 166 174 190 184 188 192 201 208 200 198 199 202 213 214 208 198 199
245 229 167 234 278 182 256 236 222 234 144 133 147 146 130 129 148 167 177 179 173 173 174 168 154 161 169 164 168 173 175 175 172 179 182 192 197 207 209 207 202 202 202 210 219 211 196 197 200
260 277 233 244 233 209 227 188 206 229 143 142 157 147 149 152 165 168 157 152 157 168 168 166 166 171 174 170 177 170 173 167 184 188 192 203 218 216 210 205 205 205 217 221 212 200 203 207 211
259 272 303 307 196 212 251 273 193 182 160 165 163 157 156 154 164 168 172 177 181 167 162 162 157 157 168 176 179 173 174 184 195 203 211 217 220 215 209 207 211 221 223 213 214 215 210 216 222
254 273 288 267 289 336 45 319 154 176 163 175 166 165 165 161 161 167 174 182 176 171 162 162 160 160 162 163 176 184 190 201 213 216 220 225 220 214 214 214 212 223 222 221 222 223 219 216 227
257 256 260 305 12 259 121 276 275 179 159 168 172 171 173 174 173 169 172 177 174 170 169 174 180 183 181 184 191 194 199 207 213 217 219 218 218 219 215 222 224 223 222 222 226 228 218 217 224
226 268 304 348 317 343 287 21 272 257 183 181 179 186 182 184 184 182 187 183 182 179 180 185 191 192 194 198 198 200 211 218 220 220 216 218 220 217 217 218 227 224 227 224 228 227 219 219 221
208 290 307 302 255 303 274 172 277 218 189 197 185 189 186 188 194 193 195 195 196 197 202 203 201 208 210 206 203 205 212 219 223 222 219 223 228 227 222 221 222 224 229 232 231 231 224 226 226
169 163 323 346 10 234 350 322 233 225 224 209 182 184 189 191 193 196 196 197 200 207 212 211 204 208 216 216 213 209 215 219 227 229 228 226 229 230 227 225 221 229 230 230 229 228 224 225 230
215 188 160 200 178 338 14 280 291 227 216 141 173 189 189 186 192 199 204 203 204 208 212 216 215 212 216 223 221 215 215 219 223 233 233 234 239 237 236 232 230 225 232 230 226 221 224 222 230
232 188 198 133 116 109 232 279 11 64 331 123 155 183 184 191 192 200 206 205 209 212 215 214 215 215 216 222 227 230 225 220 224 230 238 240 244 238 243 234 221 226 229 229 222 219 219 227 232
187 184 119 312 161 208 238 253 205 48 280 291 89 110 121 172 198 203 204 211 213 216 219 220 221 221 220 219 226 233 231 231 222 228 235 244 239 231 234 222 224 222 225 219 218 221 230 215 232
179 211 157 240 204 180 205 271 222 186 180 79 261 151 156 168 197 190 214 221 218 221 221 221 221 223 226 222 223 230 237 232 232 231 232 237 240 231 225 223 224 227 228 222 234 233 225 237 253
195 196 191 152 248 189 144 262 171 172 250 192 243 173 174 188 192 198 233 197 217 220 220 220 227 224 225 224 222 229 234 236 236 232 237 238 242 235 237 235 231 232 222 235 228 234 238 256 260